Torna al catalogo

Sitro-AIS-61

AttivoComunicazioniSSO
NORAD 67297·PAYLOAD·🇷🇺 Russia

Lanciato Dec 28, 2025 da Vostochny Cosmodrome

Loading…

Prossimi Passaggi (prossime 24 ore)

TLE

AggiornatoSource: Space-Track

Epoca: Sep 14, 2026, 04:09 UTC

1 67297U 25313BB  26257.17298202  .00007287  00000-0  27962-3 0  9991
2 67297  97.3872 331.3257 0009082  52.4925 307.7138 15.26738216 39551

Traccia Sitro-AIS-61 in tempo reale con AllMySat

Download on the App Store